Provincetown, Massachusetts, United States (02657)
Lat: 42.06N, Lon: 70.18W
Wx Zone: MAZ022
Local Info
Past Weather Observations for Today

NOTE: This archive is for the closest National Weather Service station to Provincetown. Information may differ from the station used for current weather conditions.

Click here for Long-term Archive

Time Weather Temperature Dewpoint Humidity Pressure Winds Precip Visibility
21:19
Overcast
46°F / 8°C 45°F / 7°C 93% 29.92 in
(1013 mb)
N 10.4 mph
(N 17 kph)
- 10SM
20:56
Overcast
46°F / 8°C 45°F / 7°C 93% 29.92 in
(1013 mb)
N 5.8 mph
(N 9 kph)
0.01 in
(0.25 mm)
10SM
19:56
Overcast
Light Rain
48°F / 9°C 46°F / 8°C 94% 29.92 in
(1013 mb)
N 9.2 mph
(N 15 kph)
0.00 in
(0.00 mm)
8SM
18:56
Overcast
54°F / 12°C 50°F / 10°C 88% 29.89 in
(1012 mb)
W 6.9 mph
(W 11 kph)
- 10SM
18:22
Mostly Cloudy
54°F / 12°C 52°F / 11°C 94% 29.86 in
(1011 mb)
SSW 11.5 mph
(SSW 19 kph)
- 10SM
18:12
Partly Cloudy
55°F / 13°C 52°F / 11°C 88% 29.86 in
(1011 mb)
SSW 10.4 mph
(SSW 17 kph)
- 10SM
18:03
Mostly Cloudy
54°F / 12°C 52°F / 11°C 94% 29.86 in
(1011 mb)
SSW 12.7 mph
(SSW 20 kph)
- 10SM
17:56
Overcast
54°F / 12°C 52°F / 11°C 94% 29.86 in
(1011 mb)
SSW 8.1 mph
(SSW 13 kph)
- 10SM
17:33
Overcast
54°F / 12°C 50°F / 10°C 88% 29.86 in
(1011 mb)
SW 10.4 mph
(SW 17 kph)
- 10SM
16:56
Overcast
54°F / 12°C 50°F / 10°C 88% 29.86 in
(1011 mb)
SW 10.4 mph
(SW 17 kph)
- 10SM
16:12
Overcast
52°F / 11°C 48°F / 9°C 88% 29.83 in
(1010 mb)
S 8.1 mph
(S 13 kph)
- 8SM
15:56
Overcast
Fog And Mist
52°F / 11°C 48°F / 9°C 88% 29.83 in
(1010 mb)
S 6.9 mph
(S 11 kph)
- 5SM
14:56
Overcast
54°F / 12°C 50°F / 10°C 88% 29.86 in
(1011 mb)
S 6.9 mph
(S 11 kph)
- 10SM
13:56
Overcast
55°F / 13°C 52°F / 11°C 88% 29.89 in
(1012 mb)
Calm 0.00 in
(0.00 mm)
10SM
13:31
Overcast
54°F / 12°C 50°F / 10°C 88% 29.89 in
(1012 mb)
Calm 0.00 in
(0.00 mm)
10SM
12:56
Overcast
Light Rain
50°F / 10°C 50°F / 10°C 100% 29.92 in
(1013 mb)
SSW 3.5 mph
(SSW 6 kph)
0.03 in
(0.76 mm)
4SM
11:56
Overcast
Fog And Mist
50°F / 10°C 48°F / 9°C 94% 29.89 in
(1012 mb)
SE 9.2 mph
(SE 15 kph)
- 3/4SM
11:23
Overcast
Fog And Mist
50°F / 10°C 48°F / 9°C 94% 29.92 in
(1013 mb)
SE 9.2 mph
(SE 15 kph)
- 3/4SM
10:56
Overcast
Fog And Mist
50°F / 10°C 48°F / 9°C 94% 29.92 in
(1013 mb)
E 8.1 mph
(E 13 kph)
- 1 1/4SM
09:56
Overcast
Fog And Mist
52°F / 11°C 48°F / 9°C 88% 29.95 in
(1014 mb)
E 12.7 mph
(E 20 kph)
- 1 1/2SM
09:51
Overcast
Fog And Mist
50°F / 10°C 48°F / 9°C 94% 29.95 in
(1014 mb)
SE 9.2 mph
(SE 15 kph)
- 1 1/2SM
09:43
Overcast
Fog And Mist
50°F / 10°C 48°F / 9°C 94% 29.95 in
(1014 mb)
ESE 8.1 mph
(ESE 13 kph)
- 2 1/2SM
08:56
Overcast
Fog And Mist
50°F / 10°C 48°F / 9°C 94% 30.01 in
(1016 mb)
SE 8.1 mph
(SE 13 kph)
- 1SM
07:56
Overcast
Fog And Mist
50°F / 10°C 48°F / 9°C 94% 29.98 in
(1015 mb)
E 11.5 mph
(E 19 kph)
0.00 in
(0.00 mm)
1 3/4SM
06:56
Overcast
Light Rain
52°F / 11°C 48°F / 9°C 88% 30.01 in
(1016 mb)
E 9.2 mph
(E 15 kph)
0.03 in
(0.76 mm)
1SM
06:03
Overcast
Light Rain
50°F / 10°C 48°F / 9°C 94% 30.01 in
(1016 mb)
NE 4.6 mph
(NE 7 kph)
0.00 in
(0.00 mm)
1 1/2SM
05:56
Overcast
Light Rain
50°F / 10°C 48°F / 9°C 94% 30.01 in
(1016 mb)
NE 3.5 mph
(NE 6 kph)
0.03 in
(0.76 mm)
2SM
04:56
Overcast
Light Rain
50°F / 10°C 48°F / 9°C 94% 30.01 in
(1016 mb)
NE 4.6 mph
(NE 7 kph)
0.03 in
(0.76 mm)
2SM
03:56
Overcast
Fog And Mist
48°F / 9°C 48°F / 9°C 100% 30.01 in
(1016 mb)
ENE 5.8 mph
(ENE 9 kph)
- 2 1/2SM
02:56
Overcast
Fog And Mist
48°F / 9°C 46°F / 8°C 94% 30.01 in
(1016 mb)
E 5.8 mph
(E 9 kph)
0.01 in
(0.25 mm)
5SM
01:56
Overcast
Light Rain
48°F / 9°C 46°F / 8°C 94% 30.04 in
(1017 mb)
ENE 3.5 mph
(ENE 6 kph)
0.04 in
(1.02 mm)
4SM
00:56
Overcast
Light Rain
48°F / 9°C 46°F / 8°C 94% 30.06 in
(1018 mb)
ENE 4.6 mph
(ENE 7 kph)
0.02 in
(0.51 mm)
3SM
Time Weather Temperature Dewpoint Humidity Pressure Winds Precip Visibility


Weather for websites

WeatherForYou.com, LLC is not responsible for any damages or problems caused by this service. Current weather conditions are obtained from the closest station including government and personal stations which may have varying degrees of accuracy. Weather forecasts are derived from the NOAA NDFD. Like all things, this site belongs to Jesus Christ... He just trusts us to maintain it. If you have any questions or comments email webmaster@weatherforyou.com

Copyright © 2016, WeatherForYou.com LLC. All rights reserved.